This is the latest recevied weather packets stored in our database for station/object K3HW. If no packets are shown the sender has not sent any weather packets the latest 10 day(s).
| Time | Temp. | Humidity | Pressure | Rain* | Wind** | Luminosity | Snow |
|---|---|---|---|---|---|---|---|
| 1778160165 | 11.67° C | 67% | 1015.7 hPa | 0 mm | - | 48 W/m² | - |
| 1778159862 | 11.67° C | 67% | 1015.6 hPa | 0 mm | - | 78 W/m² | - |
| 1778159559 | 11.67° C | 69% | 1015.5 hPa | 0 mm | - | 54 W/m² | - |
| 1778159255 | 11.67° C | 70% | 1015.6 hPa | 0 mm | - | 66 W/m² | - |
| 1778158953 | 11.11° C | 71% | 1015.6 hPa | 0 mm | - | 66 W/m² | - |
| 1778158652 | 11.11° C | 71% | 1015.6 hPa | 0 mm | - | 74 W/m² | - |
| 1778158349 | 11.11° C | 75% | 1015.6 hPa | 0 mm | - | 95 W/m² | - |
| 1778158045 | 10.56° C | 75% | 1015.7 hPa | 0 mm | - | 95 W/m² | - |
| 1778157742 | 10.56° C | 76% | 1015.6 hPa | 0 mm | - | 92 W/m² | - |
| 1778157441 | 10.56° C | 79% | 1015.6 hPa | 0 mm | - | 102 W/m² | - |
| 1778157138 | 10.56° C | 82% | 1015.6 hPa | 0 mm | - | 96 W/m² | - |
| 1778156833 | 10.56° C | 84% | 1015.5 hPa | 0 mm | - | 79 W/m² | - |
| 1778156529 | 10° C | 85% | 1015.5 hPa | 0 mm | - | 74 W/m² | - |
| 1778156225 | 10° C | 87% | 1015.7 hPa | 0 mm | - | 73 W/m² | - |
| 1778155921 | 9.44° C | 89% | 1015.5 hPa | 0 mm | - | 66 W/m² | - |
| 1778155617 | 9.44° C | 90% | 1015.6 hPa | 0 mm | - | 63 W/m² | - |
| 1778155314 | 9.44° C | 91% | 1015.5 hPa | 0 mm | - | 58 W/m² | - |
| 1778155010 | 9.44° C | 92% | 1015.5 hPa | 0 mm | - | 50 W/m² | - |
| 1778154706 | 9.44° C | 92% | 1015.6 hPa | 0 mm | - | 48 W/m² | - |
| 1778154402 | 10° C | 92% | 1015.6 hPa | 0 mm | - | 38 W/m² | - |
| 1778154100 | 10° C | 92% | 1015.6 hPa | 0 mm | - | 31 W/m² | - |
| 1778153797 | 10° C | 92% | 1015.4 hPa | 0 mm | - | 26 W/m² | - |
| 1778153494 | 10° C | 92% | 1015.4 hPa | 0 mm | - | 20 W/m² | - |
| 1778153192 | 10° C | 92% | 1015.2 hPa | 0 mm | - | 17 W/m² | - |
| 1778152888 | 10° C | 92% | 1014.9 hPa | 0 mm | - | 14 W/m² | - |
* Rain latest hour (hover to see other rain measurements)
** Current wind speed in m/s (hover to see current wind gust speed)